Regional Weather Roundup
Issued by NWS Midland/Odessa, TX

Skip options and go directly to product.
Home | Oldest Version | Previous Version | Current Version | All | Graphics & Text | Save Text | Print | Product List | Glossary On

Skip product version selection by date and time.   
703
ASUS44 KMAF 270310
RWRMAF
MIDLAND AREA WEATHER ROUNDUP
NATIONAL WEATHER SERVICE MIDLAND TX
1000 PM CDT TUE JUL 26 2016

...IN SOUTHWEST TEXAS AND SOUTHEAST NEW MEXICO...

CITY           SKY/WX    TMP DP  RH WIND       PRES   REMARKS
ALPINE         PTCLDY    75  66  73 CALM      30.17R
ANDREWS        FAIR      74  64  70 S7        30.03S
ARTESIA        PTCLDY    82  61  47 S8        30.04R
BIG SPRING     PTCLDY    87  61  41 SE7       30.00R
CARLSBAD       PTCLDY    78  67  68 SW7       30.01R
DRYDEN         NOT AVBL
FORT STOCKTON  CLOUDY    77  61  57 SE16      30.03R
GUAD PASS      CLOUDY    73  57  57 NE17      30.18R
HOBBS          PTCLDY    77  64  65 SE8       30.08S
MARFA          CLOUDY    77  59  53 E6        30.16R
MIDLAND AIRPK  LGT RAIN  77  69  76 S8        30.01S
MIDLAND INTL   LGT RAIN  76  69  79 S12       30.01S
ODESSA         LGT RAIN  74  69  85 S15       30.02F
PECOS          CLOUDY    82  63  51 E9        30.00R
PRESIDIO       CLOUDY    89  61  38 NE16G28   29.96R
SEMINOLE       LGT RAIN  75  64  68 SW6       30.04F
SNYDER           N/A     84  65  52 E6        29.99R
WINK           CLOUDY    79  66  64 E12G21    30.00R
$$
...OTHER STATIONS IN TEXAS...

CITY           SKY/WX    TMP DP  RH WIND       PRES   REMARKS
ABILENE        CLEAR     86  65  49 SE8       29.96R
AMARILLO       CLEAR     78  65  63 SE14      30.07R
AUSTIN         PTCLDY    77  75  93 CALM      29.93R
BROWNSVILLE    CLEAR     84  78  82 SE13      29.90R
CORPUS CHRISTI CLOUDY    84  77  79 SE7       29.91R
DALLAS FTW     MOCLDY    86  70  58 E9        29.91R
DEL RIO        PTCLDY    76  72  87 CALM      29.92R
EL PASO        MOCLDY    86  55  34 E12       30.01R
HOUSTON INT    MOCLDY    80  73  79 S5        29.93R
LUBBOCK        PTCLDY    80  60  50 E7        30.04R
SAN ANGELO     CLEAR     88  64  44 S8        29.95R
SAN ANTONIO    MOCLDY    77  73  87 SE7       29.94R
WACO           CLEAR     86  72  62 SE13      29.90R
WICHITA FALLS  NOT AVBL
$$
...OTHER LOCATIONS IN NEW MEXICO...

CITY           SKY/WX    TMP DP  RH WIND       PRES   REMARKS
ALAMAGORDO     CLOUDY    82  55  39 SW5       30.05R
ALBUQUERQUE    CLOUDY    81  54  39 SE23G30   30.16R
CANNON AFB     CLEAR     74  62  65 SE5       30.10R
CLOVIS         CLOUDY    75  55  50 SE8       30.10R
HOLLOMAN AFB   PTCLDY    86  54  33 S9        30.02R
ROSWELL        CLOUDY    84  58  40 S9        30.03R
RUIDOSO          N/A     72  52  49 S6        30.30R
SANTA FE       CLOUDY    77  47  34 NE5       30.24R
TRUTH OR CONSE MOCLDY    83  53  35 NW14G22   30.09R
TUCUMCARI      CLEAR     80  59  48 SW7       30.05R
$$

USA.gov is the U.S. government's official web portal to all federal, state and local government web resources and services.